This is the latest recevied weather packets stored in our database for station/object K7UHP. If no packets are shown the sender has not sent any weather packets the latest 10 day(s).
| Time | Temp. | Humidity | Pressure | Rain* | Wind** | Luminosity | Snow |
|---|---|---|---|---|---|---|---|
| 1777766552 | 22.78° C | 18% | 1016.3 hPa | 0 mm | - | - | - |
| 1777765951 | 22.78° C | 17% | 1016.3 hPa | 0 mm | - | - | - |
| 1777765350 | 22.78° C | 19% | 1016.4 hPa | 0 mm | - | - | - |
| 1777764750 | 22.78° C | 18% | 1016.4 hPa | 0 mm | - | - | - |
| 1777764149 | 22.22° C | 19% | 1016.5 hPa | 0 mm | - | - | - |
| 1777763548 | 22.22° C | 20% | 1016.6 hPa | 0 mm | - | - | - |
| 1777762947 | 22.78° C | 20% | 1016.8 hPa | 0 mm | - | - | - |
| 1777762346 | 22.22° C | 19% | 1016.8 hPa | 0 mm | - | - | - |
| 1777761746 | 22.22° C | 19% | 1016.9 hPa | 0 mm | - | - | - |
| 1777761145 | 22.22° C | 19% | 1017 hPa | 0 mm | - | - | - |
| 1777760544 | 22.22° C | 20% | 1017 hPa | 0 mm | - | - | - |
| 1777759943 | 22.22° C | 18% | 1017.2 hPa | 0 mm | - | - | - |
| 1777759343 | 22.22° C | 18% | 1017.3 hPa | 0 mm | - | - | - |
| 1777758742 | 22.22° C | 19% | 1017.5 hPa | 0 mm | - | - | - |
| 1777758141 | 22.22° C | 18% | 1017.7 hPa | 0 mm | - | - | - |
| 1777757540 | 22.22° C | 14% | 1017.7 hPa | 0 mm | - | - | - |
| 1777756940 | 22.22° C | 15% | 1018 hPa | 0 mm | - | - | - |
| 1777756339 | 22.22° C | 17% | 1018.1 hPa | 0 mm | - | - | - |
| 1777755738 | 22.22° C | 14% | 1018.2 hPa | 0 mm | - | - | - |
| 1777755137 | 21.67° C | 16% | 1018.3 hPa | 0 mm | - | - | - |
| 1777754536 | 22.22° C | 17% | 1018.4 hPa | 0 mm | - | - | - |
| 1777753935 | 22.22° C | 13% | 1018.4 hPa | 0 mm | - | - | - |
| 1777753334 | 22.22° C | 12% | 1018.6 hPa | 0 mm | - | - | - |
| 1777752734 | 22.22° C | 14% | 1018.6 hPa | 0 mm | - | - | - |
| 1777752133 | 22.78° C | 13% | 1018.8 hPa | 0 mm | - | - | - |
* Rain latest hour (hover to see other rain measurements)
** Current wind speed in m/s (hover to see current wind gust speed)